Tracking 22881 objects as of 19-Apr-2021
HD Live streaming from Space Station
objects crossing your sky now

STARLINK-1167

Track STARLINK-1167 now!
10-day predictions
STARLINK-1167 is classified as:


NORAD ID: 45071
Int'l Code: 2020-006AD
Perigee: 553.2 km
Apogee: 555.6 km
Inclination: 53.1 °
Period: 95.6 minutes
Semi major axis: 6925 km
RCS: Unknown
Launch date: January 29, 2020
Source: United States (US)
Launch site: AIR FORCE EASTERN TEST RANGE (AFETR)
aabbcc
Your satellite tracking list
Your tracking list is empty




NASA's NSSDC Master Catalog

Two Line Element Set (TLE):
1 45071U 20006AD  21108.86368904  .00000856  00000-0  76364-4 0  9990
2 45071  53.0602   3.4954 0001691  88.6817 271.4366 15.06387468 67915
Source of the keplerian elements: AFSPC